| time (UTC) | temp C | wind direction | speed KPH | gust KPH | rain 1hr cm | rain 24hr cm | rain mn cm | humidity % | barometer mb |
| 20260503195751 | 3 | 225 | 0.0 | 0.0 | 0.00 | 0.00 | 0.00 | 66 | 1111.0 |
| 20260503194750 | 3 | 225 | 0.0 | 0.0 | 0.00 | 0.00 | 0.00 | 66 | 1111.0 |
| 20260503193750 | 3 | 225 | 0.0 | 0.0 | 0.00 | 0.00 | 0.00 | 65 | 1111.0 |
| 20260503192749 | 3 | 225 | 0.0 | 0.0 | 0.00 | 0.00 | 0.00 | 64 | 1111.0 |
| 20260503191749 | 3 | 225 | 0.0 | 0.0 | 0.00 | 0.00 | 0.00 | 63 | 1111.0 |
| 20260503190748 | 4 | 225 | 0.0 | 0.0 | 0.00 | 0.00 | 0.00 | 62 | 1111.0 |
| 20260503185749 | 5 | 225 | 0.0 | 0.0 | 0.00 | 0.00 | 0.00 | 61 | 1111.0 |
| 20260503184747 | 5 | 225 | 0.0 | 0.0 | 0.00 | 0.00 | 0.00 | 60 | 1111.0 |
| 20260503183746 | 6 | 225 | 0.0 | 0.0 | 0.00 | 0.00 | 0.00 | 59 | 1111.0 |
| 20260503182746 | 6 | 225 | 0.0 | 0.0 | 0.00 | 0.00 | 0.00 | 58 | 1111.0 |
| 20260503181745 | 7 | 225 | 0.0 | 0.0 | 0.00 | 0.00 | 0.00 | 57 | 1111.0 |
| 20260503180745 | 7 | 225 | 0.0 | 0.0 | 0.00 | 0.00 | 0.00 | 55 | 1111.0 |
| 20260503175744 | 8 | 225 | 0.0 | 0.0 | 0.00 | 0.00 | 0.00 | 54 | 1111.0 |
| 20260503174743 | 8 | 225 | 0.0 | 0.0 | 0.00 | 0.00 | 0.00 | 53 | 1111.0 |
| 20260503173743 | 10 | 225 | 1.6 | 1.6 | 0.00 | 0.00 | 0.00 | 53 | 1111.0 |
| 20260503172742 | 10 | 247 | 0.0 | 0.0 | 0.00 | 0.00 | 0.00 | 52 | 1111.0 |
| 20260503171742 | 11 | 247 | 0.0 | 0.0 | 0.00 | 0.00 | 0.00 | 50 | 1111.0 |
| 20260503170741 | 12 | 247 | 0.0 | 0.0 | 0.00 | 0.00 | 0.00 | 49 | 1111.0 |
| 20260503150734 | 15 | 0 | 3.2 | 3.2 | 0.00 | 0.00 | 0.00 | 44 | 1111.0 |
| 20260503131131 | 18 | 337 | 0.0 | 3.2 | 0.00 | 0.00 | 0.00 | 37 | 1111.0 |
| 20260503130727 | 18 | 135 | 3.2 | 3.2 | 0.00 | 0.00 | 0.00 | 37 | 1111.0 |
| 20260503110721 | 16 | 112 | 6.4 | 9.7 | 0.00 | 0.00 | 0.00 | 38 | 1111.0 |
| 20260503100119 | 15 | 337 | 3.2 | 8.0 | 0.00 | 0.00 | 0.00 | 37 | 1111.0 |
| 20260503090415 | 14 | 270 | 3.2 | 3.2 | 0.00 | 0.00 | 0.00 | 43 | 1111.0 |
| 20260503080710 | 12 | 22 | 0.0 | 3.2 | 0.00 | 0.00 | 0.00 | 49 | 1111.0 |
| 20260503072708 | 11 | 225 | 3.2 | 4.8 | 0.00 | 0.00 | 0.00 | 53 | 1111.0 |
| 20260503071708 | 10 | 292 | 1.6 | 6.4 | 0.00 | 0.00 | 0.00 | 56 | 1111.0 |
| 20260503070707 | 10 | 90 | 0.0 | 0.0 | 0.00 | 0.00 | 0.00 | 57 | 1111.0 |
| 20260503054702 | 5 | 157 | 0.0 | 0.0 | 0.00 | 0.00 | 0.00 | 72 | 1111.0 |
| 20260503053702 | 5 | 157 | 0.0 | 0.0 | 0.00 | 0.00 | 0.00 | 73 | 1111.0 |
| 20260503053503 | 4 | 157 | 0.0 | 0.0 | 0.00 | 0.00 | 0.00 | 74 | 1111.0 |
| 20260503052701 | 3 | 157 | 0.0 | 0.0 | 0.00 | 0.00 | 0.00 | 75 | 1111.0 |
| 20260503051701 | 3 | 157 | 0.0 | 0.0 | 0.00 | 0.00 | 0.00 | 77 | 1111.0 |
| 20260503051602 | 3 | 157 | 0.0 | 0.0 | 0.00 | 0.00 | 0.00 | 77 | 1111.0 |
| 20260503050700 | 2 | 135 | 0.0 | 1.6 | 0.00 | 0.00 | 0.00 | 78 | 1111.0 |
| 20260503045700 | 2 | 112 | 0.0 | 0.0 | 0.00 | 0.00 | 0.00 | 79 | 1111.0 |
| 20260503044659 | 0 | 112 | 0.0 | 0.0 | 0.00 | 0.00 | 0.00 | 80 | 1111.0 |
| 20260503043658 | 0 | 112 | 0.0 | 0.0 | 0.00 | 0.00 | 0.00 | 81 | 1111.0 |
| 20260503042658 | 0 | 112 | 0.0 | 0.0 | 0.00 | 0.00 | 0.00 | 83 | 1111.0 |
| 20260503041859 | 0 | 112 | 0.0 | 0.0 | 0.00 | 0.00 | 0.00 | 83 | 1111.0 |
| 20260503041657 | 0 | 112 | 0.0 | 0.0 | 0.00 | 0.00 | 0.00 | 83 | 1111.0 |
| 20260503040657 | -2 | 112 | 0.0 | 0.0 | 0.00 | 0.00 | 0.00 | 84 | 1111.0 |
| 20260503035656 | -3 | 112 | 0.0 | 0.0 | 0.00 | 0.00 | 0.00 | 83 | 1111.0 |
| 20260503034656 | -5 | 112 | 0.0 | 0.0 | 0.00 | 0.00 | 0.00 | 80 | 1111.0 |
| 20260503034057 | -5 | 112 | 0.0 | 0.0 | 0.00 | 0.00 | 0.00 | 80 | 1111.0 |
| 20260503033655 | -5 | 112 | 0.0 | 0.0 | 0.00 | 0.00 | 0.00 | 80 | 1111.0 |
| 20260503032654 | -5 | 112 | 0.0 | 0.0 | 0.00 | 0.00 | 0.00 | 79 | 1111.0 |
| 20260503031654 | -5 | 112 | 0.0 | 0.0 | 0.00 | 0.00 | 0.00 | 79 | 1111.0 |
| 20260503030653 | -5 | 112 | 0.0 | 0.0 | 0.00 | 0.00 | 0.00 | 79 | 1111.0 |
| 20260503030256 | -5 | 112 | 0.0 | 0.0 | 0.00 | 0.00 | 0.00 | 79 | 1111.0 |
| 20260503025653 | -5 | 112 | 0.0 | 0.0 | 0.00 | 0.00 | 0.00 | 79 | 1111.0 |
| 20260503024652 | -4 | 112 | 0.0 | 0.0 | 0.00 | 0.00 | 0.00 | 79 | 1111.0 |
| 20260503024353 | -4 | 112 | 0.0 | 0.0 | 0.00 | 0.00 | 0.00 | 79 | 1111.0 |
| 20260503023652 | -4 | 112 | 0.0 | 0.0 | 0.00 | 0.00 | 0.00 | 79 | 1111.0 |
| 20260503022651 | -4 | 112 | 0.0 | 0.0 | 0.00 | 0.00 | 0.00 | 78 | 1111.0 |
| 20260503021651 | -4 | 112 | 0.0 | 0.0 | 0.00 | 0.00 | 0.00 | 78 | 1111.0 |
| 20260503020650 | -3 | 112 | 0.0 | 0.0 | 0.00 | 0.00 | 0.00 | 78 | 1111.0 |
| 20260503020551 | -3 | 112 | 0.0 | 0.0 | 0.00 | 0.00 | 0.00 | 78 | 1111.0 |
| 20260503015649 | -3 | 112 | 0.0 | 0.0 | 0.00 | 0.00 | 0.00 | 78 | 1111.0 |
| 20260503014649 | -3 | 112 | 0.0 | 0.0 | 0.00 | 0.00 | 0.00 | 78 | 1111.0 |
| 20260503013648 | -3 | 112 | 0.0 | 0.0 | 0.00 | 0.00 | 0.00 | 78 | 1111.0 |
| 20260503012648 | -3 | 112 | 0.0 | 0.0 | 0.00 | 0.00 | 0.00 | 77 | 1111.0 |
| 20260503011647 | -3 | 112 | 0.0 | 0.0 | 0.00 | 0.00 | 0.00 | 77 | 1111.0 |
| 20260503010646 | -3 | 112 | 0.0 | 0.0 | 0.00 | 0.00 | 0.00 | 77 | 1111.0 |
| 20260503005646 | -2 | 112 | 0.0 | 0.0 | 0.00 | 0.00 | 0.00 | 77 | 1111.0 |
| 20260503004645 | -2 | 112 | 0.0 | 0.0 | 0.00 | 0.00 | 0.00 | 76 | 1111.0 |
| 20260503003645 | -2 | 112 | 0.0 | 0.0 | 0.00 | 0.00 | 0.00 | 76 | 1111.0 |
| 20260503002644 | -2 | 112 | 0.0 | 0.0 | 0.00 | 0.00 | 0.00 | 76 | 1111.0 |
| 20260503001644 | -2 | 112 | 0.0 | 0.0 | 0.00 | 0.00 | 0.00 | 75 | 1111.0 |
| 20260503001145 | -2 | 112 | 0.0 | 0.0 | 0.00 | 0.00 | 0.00 | 75 | 1111.0 |
| 20260503000643 | -1 | 112 | 0.0 | 0.0 | 0.00 | 0.00 | 0.00 | 75 | 1111.0 |
| 20260502235644 | -1 | 112 | 0.0 | 0.0 | 0.00 | 0.00 | 0.00 | 75 | 1111.0 |
| 20260502235245 | -1 | 112 | 0.0 | 0.0 | 0.00 | 0.00 | 0.00 | 75 | 1111.0 |
| 20260502234642 | -1 | 112 | 0.0 | 0.0 | 0.00 | 0.00 | 0.00 | 74 | 1111.0 |
| 20260502233641 | -1 | 112 | 0.0 | 0.0 | 0.00 | 0.00 | 0.00 | 75 | 1111.0 |
| 20260502232641 | 0 | 112 | 0.0 | 0.0 | 0.00 | 0.00 | 0.00 | 74 | 1111.0 |
| 20260502231640 | 0 | 112 | 0.0 | 0.0 | 0.00 | 0.00 | 0.00 | 74 | 1111.0 |
| 20260502231444 | 0 | 112 | 0.0 | 0.0 | 0.00 | 0.00 | 0.00 | 74 | 1111.0 |
| 20260502230640 | 0 | 112 | 0.0 | 0.0 | 0.00 | 0.00 | 0.00 | 74 | 1111.0 |
| 20260502225639 | 0 | 112 | 0.0 | 0.0 | 0.00 | 0.00 | 0.00 | 74 | 1111.0 |
| 20260502225540 | 0 | 112 | 0.0 | 0.0 | 0.00 | 0.00 | 0.00 | 74 | 1111.0 |
| 20260502224638 | 0 | 112 | 0.0 | 0.0 | 0.00 | 0.00 | 0.00 | 74 | 1111.0 |
| 20260502223638 | 0 | 112 | 0.0 | 0.0 | 0.00 | 0.00 | 0.00 | 73 | 1111.0 |
| 20260502222637 | 0 | 112 | 0.0 | 0.0 | 0.00 | 0.00 | 0.00 | 73 | 1111.0 |
| 20260502221738 | 0 | 112 | 0.0 | 0.0 | 0.00 | 0.00 | 0.00 | 72 | 1111.0 |
| 20260502221637 | 0 | 112 | 0.0 | 0.0 | 0.00 | 0.00 | 0.00 | 72 | 1111.0 |
| 20260502220636 | 1 | 112 | 0.0 | 0.0 | 0.00 | 0.00 | 0.00 | 72 | 1111.0 |
| 20260502215837 | 1 | 112 | 0.0 | 0.0 | 0.00 | 0.00 | 0.00 | 71 | 1111.0 |
| 20260502215636 | 1 | 112 | 0.0 | 0.0 | 0.00 | 0.00 | 0.00 | 71 | 1111.0 |
| 20260502214635 | 1 | 112 | 0.0 | 0.0 | 0.00 | 0.00 | 0.00 | 71 | 1111.0 |
| 20260502213635 | 1 | 112 | 0.0 | 1.6 | 0.00 | 0.00 | 0.00 | 71 | 1111.0 |
| 20260502212634 | 1 | 112 | 0.0 | 0.0 | 0.00 | 0.00 | 0.00 | 70 | 1111.0 |
| 20260502212035 | 2 | 112 | 0.0 | 0.0 | 0.00 | 0.00 | 0.00 | 70 | 1111.0 |
| 20260502211633 | 2 | 112 | 0.0 | 0.0 | 0.00 | 0.00 | 0.00 | 70 | 1111.0 |
| 20260502210633 | 2 | 112 | 0.0 | 0.0 | 0.00 | 0.00 | 0.00 | 70 | 1111.0 |
| 20260502210134 | 2 | 112 | 0.0 | 0.0 | 0.00 | 0.00 | 0.00 | 69 | 1111.0 |
| 20260502205633 | 2 | 112 | 0.0 | 0.0 | 0.00 | 0.00 | 0.00 | 69 | 1111.0 |
| 20260502204632 | 2 | 112 | 0.0 | 0.0 | 0.00 | 0.00 | 0.00 | 68 | 1111.0 |
| 20260502204233 | 2 | 112 | 0.0 | 1.6 | 0.00 | 0.00 | 0.00 | 68 | 1111.0 |
| 20260502203631 | 2 | 112 | 0.0 | 0.0 | 0.00 | 0.00 | 0.00 | 68 | 1111.0 |
| 20260502202631 | 2 | 112 | 0.0 | 0.0 | 0.00 | 0.00 | 0.00 | 68 | 1111.0 |
| 20260502202332 | 2 | 112 | 0.0 | 0.0 | 0.00 | 0.00 | 0.00 | 68 | 1111.0 |
| 20260502201630 | 2 | 112 | 0.0 | 0.0 | 0.00 | 0.00 | 0.00 | 67 | 1111.0 |